Showing default

COSMOS 2212, 22183

Orbit data source: Space-Track

COSMOS 2212, 22183 is a payload satellite owned by VKS (CIS) in LEO that was launched on Tue, 20 Oct 1992 UTC via a TSIKLON-3 launch vehicle from the Plesetsk Missile And Space Complex (PKMTR). Payload-class satellites include a variety of spacecraft equipped with specific instruments for various scientific and technological missions. These include communications satellites like Starlink; space stations such as the ISS; scientific satellites like the Hubble; Earth observation satellites from companies like Planet Labs, Umbra, and HawkEye 360; GPS; miniature CubeSats for education and research; and military/defense satellites.

Loading next visibility...
Identifier
22183, 1992-068B
Orbit
LEO
Country
Flag of CISCIS
Related business
Manufacturer
NPO PM
Mission
Defense Communications
Bus & Motor
STRELA-3, Unknown motor
Mass
225 kg wet, 225 kg dry
Launch date (UTC)
1992-10-20 (34 years ago)
Launch vehicle
TSIKLON-3
Launch site
Plesetsk Missile And Space Complex (PKMTR)
Object type
Payload
Rocket body
Debris
Shape & HBR
Cyl, 0.8 m
Radar Cross Section
1.257 m², Medium (>0.1 m² and < 1m²)

Expand to show TLE details & history
Last TLE update: 8 hours ago

TLE from 8 hours ago
0 COSMOS 2212
1 22183U 92068B   26126.14168624  .00000025  00000-0  81075-4 0  9992
2 22183  82.5918 355.5563 0001456 271.4036  88.6889 12.63148703546278
Epoch: 2026-05-06T03:24Z
TLE epoch observation values (Epoch: 2026-05-06T03:24:01.691Z)
Latitude
0.00002°
Longitude
80.54282°
Altitude
1,412.68 km
Speed
7.154 km/s
True Right ascension
23h 42m 13s
True Declination
0° 00' 00"
Sunlit
Object was in daylight at epoch
Visualization orbit readout
Latitude
Unknown
Longitude
Unknown
Altitude
Unknown
Speed
Unknown
Apparent Right ascension
Unknown
Apparent Declination
Unknown
Sunlit
N/A
Visualization observer readout
Local Sidereal Time
19:02:44
Azimuth
Unknown
Elevation
Unknown
Doppler factor
Unknown
Orbital elements
Apogee altitude
1,408.428 km
Perigee altitude
1,406.16 km
Semi-major axis
7,785.431 km
Eccentricity
0.00015
Inclination
82.5918°
RAAN
355.5563°
Arg. of periapsis
271.4036°
True anomaly
88.70558°
Mean anomaly
88.6889°
Eccentric anomaly
88.69724°
Mean motion
3.15951 °/min
Orbital period
113.94 mins
BSTAR
0.000081075
Loading maneuver chart data...
Computing Atmospheric mass density...
Loading historical data...
Loading historical data...
Loading historical data...
Loading historical data...
Loading historical data...
Loading historical data...
Loading historical data...

Documentation

Showing up to 5 results
|